Weather History for Saginaw Browne, MI

Change the Weather History Date:

Sunday, September 30, 2012

  Actual Average (KMBS) Record (KMBS)
Temperature  
Mean Temperature 52 °F 56 °F  
Max Temperature 62 °F 66 °F 86 °F (2002)
Min Temperature 42 °F 45 °F 34 °F (2003)
Degree Days  
Heating Degree Days 13    
Month to date heating degree days  
Since 1 July heating degree days  
Cooling Degree Days 0    
Month to date cooling degree days  
Year to date cooling degree days  
Growing Degree Days 2 (Base 50)    
Moisture  
Dew Point 47 °F    
Average Humidity 83    
Maximum Humidity 100    
Minimum Humidity 55    
Precipitation  
Precipitation 0.00 in 0.11 in 0.33 in (1998)
Month to date precipitation 3.83  
Year to date precipitation 24.35  
Snow  
Snow 0.00 in - - ()
Month to date snowfall  
Since 1 July snowfall  
Since 1 September snowfall  
Snow Depth -    
Sea Level Pressure  
Sea Level Pressure 29.97 in    
Wind  
Wind Speed 5 mph (North)    
Max Wind Speed 15 mph    
Max Gust Speed 23 mph    
Visibility 10 miles    
Events Rain    
T = Trace of Precipitation, MM = Missing Value Source: NWS Daily Summary

Daily Weather History Graph

Daily Weather History Graph

Search for Another Location

Airport:

Trip Planner

Search our weather history database for the weather conditions in past years. The results will help you decide how hot, cold, wet, or windy it might be!

Date:

Astronomy

Sep. 30, 2012 Rise Set
Actual Time 7:32 AM EDT 7:17 PM EDT
Civil Twilight 7:03 AM EDT 7:45 PM EDT
Nautical Twilight 6:30 AM EDT 8:18 PM EDT
Astronomical Twilight 5:57 AM EDT 8:52 PM EDT
Moon 7:17 PM EDT (9/30) 8:04 AM EDT (9/30)
Length of Visible Light 12h 42m
Length of Day
11h 45m
Full, 100% of the Moon is Illuminated
Sep 30
Full
Oct 8
Last Quarter
Oct 15
New
Oct 21
First Quarter
Oct 29
Full

Hourly Weather History & Observations

Time (EDT) Temp. Windchill Dew Point Humidity Pressure Visibility Wind Dir Wind Speed Gust Speed Precip Events Conditions
12:10 AM 46.4 °F - 46.4 °F 100% 29.98 in 10.0 mi Calm Calm - N/A   Scattered Clouds
12:30 AM 46.4 °F - 46.4 °F 100% 29.97 in 10.0 mi Calm Calm - N/A   Clear
12:51 AM 46.4 °F 45.2 °F 46.4 °F 100% 29.97 in 10.0 mi West 3.5 mph - N/A   Clear
1:11 AM 46.4 °F 45.2 °F 44.6 °F 93% 29.97 in 10.0 mi West 3.5 mph - N/A   Clear
1:31 AM 46.4 °F 44.3 °F 44.6 °F 93% 29.97 in 10.0 mi WNW 4.6 mph - N/A   Scattered Clouds
1:51 AM 48.2 °F - 46.4 °F 93% 29.97 in 10.0 mi NW 3.5 mph - N/A   Mostly Cloudy
2:11 AM 48.2 °F - 48.2 °F 100% 29.96 in 10.0 mi WNW 4.6 mph - N/A   Scattered Clouds
2:31 AM 48.2 °F - 48.2 °F 100% 29.96 in 10.0 mi NW 4.6 mph - N/A   Scattered Clouds
2:51 AM 48.2 °F - 48.2 °F 100% 29.96 in 10.0 mi NNW 4.6 mph - N/A   Scattered Clouds
3:11 AM 46.4 °F 42.9 °F 46.4 °F 100% 29.95 in 10.0 mi NNW 6.9 mph - N/A   Clear
3:31 AM 46.4 °F 43.5 °F 46.4 °F 100% 29.94 in 10.0 mi NNW 5.8 mph - N/A   Clear
3:52 AM 46.4 °F 44.3 °F 46.4 °F 100% 29.95 in 10.0 mi NNW 4.6 mph - N/A   Clear
4:12 AM 46.4 °F 44.3 °F 46.4 °F 100% 29.95 in 7.0 mi North 4.6 mph - N/A   Scattered Clouds
4:32 AM 46.4 °F 45.2 °F 46.4 °F 100% 29.96 in 7.0 mi North 3.5 mph - N/A   Mostly Cloudy
4:52 AM 50.0 °F - 50.0 °F 100% 29.96 in 10.0 mi NE 9.2 mph - N/A Rain Rain
5:12 AM 51.8 °F - 50.0 °F 94% 29.96 in 10.0 mi NNE 4.6 mph - N/A Rain Light Rain
5:32 AM 51.8 °F - 50.0 °F 94% 29.96 in 10.0 mi NNE 4.6 mph - N/A   Overcast
5:52 AM 50.0 °F - 50.0 °F 100% 29.96 in 10.0 mi NNE 3.5 mph - N/A   Overcast
6:12 AM 50.0 °F - 50.0 °F 100% 29.97 in 10.0 mi North 4.6 mph - N/A   Overcast
6:32 AM 48.2 °F - 46.4 °F 93% 29.96 in 10.0 mi North 4.6 mph - N/A   Mostly Cloudy
6:52 AM 46.4 °F 45.2 °F 46.4 °F 100% 29.96 in 10.0 mi NNE 3.5 mph - N/A   Scattered Clouds
7:13 AM 46.4 °F - 46.4 °F 100% 29.96 in 10.0 mi Calm Calm - N/A   Clear
7:33 AM 46.4 °F 45.2 °F 44.6 °F 93% 29.97 in 10.0 mi North 3.5 mph - N/A   Clear
7:53 AM 46.4 °F - 46.4 °F 100% 29.97 in 10.0 mi Calm Calm - N/A   Clear
8:13 AM 46.4 °F - 46.4 °F 100% 29.97 in 10.0 mi Calm Calm - N/A   Clear
8:33 AM 48.2 °F - 48.2 °F 100% 29.98 in 10.0 mi Calm Calm - N/A   Clear
8:53 AM 50.0 °F - 50.0 °F 100% 29.98 in 10.0 mi NNW 3.5 mph - N/A   Clear
9:13 AM 51.8 °F - 50.0 °F 94% 29.98 in 10.0 mi NNW 5.8 mph - N/A   Clear
9:33 AM 53.6 °F - 51.8 °F 94% 29.98 in 10.0 mi North 5.8 mph - N/A   Clear
9:53 AM 55.4 °F - 51.8 °F 88% 29.98 in 10.0 mi North 4.6 mph - N/A   Clear
10:14 AM 57.2 °F - 53.6 °F 88% 29.99 in 10.0 mi Calm Calm - N/A   Scattered Clouds
10:34 AM 59.0 °F - 48.2 °F 67% 29.99 in 10.0 mi NE 11.5 mph 18.4 mph N/A   Mostly Cloudy
10:54 AM 57.2 °F - 50.0 °F 77% 29.99 in 10.0 mi NNE 11.5 mph 19.6 mph N/A   Mostly Cloudy
11:14 AM 59.0 °F - 50.0 °F 72% 29.99 in 10.0 mi North 15.0 mph 20.7 mph N/A   Mostly Cloudy
11:34 AM 59.0 °F - 48.2 °F 67% 29.99 in 10.0 mi NNE 11.5 mph 19.6 mph N/A   Mostly Cloudy
11:54 AM 59.0 °F - 48.2 °F 67% 29.99 in 10.0 mi NNE 12.7 mph 20.7 mph N/A   Mostly Cloudy
12:14 PM 60.8 °F - 50.0 °F 68% 29.99 in 10.0 mi NNE 12.7 mph 20.7 mph N/A   Mostly Cloudy
12:34 PM 62.6 °F - 46.4 °F 55% 29.99 in 10.0 mi NNE 15.0 mph 23.0 mph N/A   Mostly Cloudy
12:49 PM 59.0 °F - 46.4 °F 63% 29.99 in 10.0 mi NE 12.7 mph - N/A   Overcast
1:09 PM 60.8 °F - 46.4 °F 59% 29.98 in 10.0 mi NNE 13.8 mph 20.7 mph N/A   Mostly Cloudy
1:30 PM 60.8 °F - 46.4 °F 59% 29.98 in 10.0 mi NNE 11.5 mph - N/A   Overcast
1:50 PM 59.0 °F - 46.4 °F 63% 29.98 in 10.0 mi North 15.0 mph 20.7 mph N/A   Mostly Cloudy
2:10 PM 60.8 °F - 46.4 °F 59% 29.97 in 10.0 mi NNE 13.8 mph 19.6 mph N/A   Overcast
2:30 PM 59.0 °F - 46.4 °F 63% 29.97 in 10.0 mi NNE 13.8 mph - N/A   Overcast
2:50 PM 60.8 °F - 50.0 °F 68% 29.97 in 10.0 mi North 12.7 mph - N/A   Overcast
3:10 PM 60.8 °F - 48.2 °F 63% 29.97 in 10.0 mi NE 15.0 mph - N/A   Overcast
3:30 PM 59.0 °F - 48.2 °F 67% 29.96 in 10.0 mi NNE 12.7 mph 17.3 mph N/A   Overcast
4:11 PM 60.8 °F - 46.4 °F 59% 29.96 in 10.0 mi North 10.4 mph - N/A   Overcast
4:31 PM 60.8 °F - 46.4 °F 59% 29.96 in 10.0 mi NNE 10.4 mph - N/A   Overcast
4:51 PM 59.0 °F - 48.2 °F 67% 29.96 in 10.0 mi NNE 10.4 mph - N/A   Overcast
5:11 PM 59.0 °F - 48.2 °F 67% 29.95 in 10.0 mi NE 8.1 mph - N/A   Mostly Cloudy
5:31 PM 59.0 °F - 46.4 °F 63% 29.95 in 10.0 mi NNE 8.1 mph - N/A   Scattered Clouds
5:51 PM 59.0 °F - 46.4 °F 63% 29.95 in 10.0 mi NNE 9.2 mph - N/A   Mostly Cloudy
6:11 PM 59.0 °F - 46.4 °F 63% 29.95 in 10.0 mi NE 6.9 mph - N/A   Overcast
6:31 PM 59.0 °F - 46.4 °F 63% 29.96 in 10.0 mi NE 6.9 mph - N/A   Mostly Cloudy
6:51 PM 57.2 °F - 46.4 °F 67% 29.96 in 10.0 mi NNE 3.5 mph - N/A   Mostly Cloudy
7:12 PM 55.4 °F - 46.4 °F 72% 29.96 in 10.0 mi Calm Calm - N/A   Scattered Clouds
7:32 PM 55.4 °F - 44.6 °F 67% 29.96 in 10.0 mi Calm Calm - N/A   Clear
7:52 PM 53.6 °F - 46.4 °F 77% 29.97 in 5.0 mi Calm Calm - N/A Rain Light Rain
8:12 PM 50.0 °F - 44.6 °F 82% 29.97 in 10.0 mi Calm Calm - N/A   Clear
8:32 PM 50.0 °F - 44.6 °F 82% 29.97 in 10.0 mi Calm Calm - N/A   Clear
8:52 PM 46.4 °F - 42.8 °F 87% 29.97 in 10.0 mi Calm Calm - N/A   Clear
9:12 PM 46.4 °F - 42.8 °F 87% 29.97 in 10.0 mi Calm Calm - N/A   Clear
9:32 PM 48.2 °F - 44.6 °F 87% 29.97 in 10.0 mi Calm Calm - N/A   Clear
10:13 PM 44.6 °F - 42.8 °F 93% 29.97 in 10.0 mi Calm Calm - N/A   Clear
10:33 PM 44.6 °F - 42.8 °F 93% 29.97 in 10.0 mi Calm Calm - N/A   Clear
10:53 PM 42.8 °F - 41.0 °F 93% 29.97 in 10.0 mi Calm Calm - N/A   Clear
11:13 PM 44.6 °F - 42.8 °F 93% 29.97 in 10.0 mi Calm Calm - N/A   Clear
11:33 PM 42.8 °F - 41.0 °F 93% 29.96 in 10.0 mi Calm Calm - N/A   Clear